Location: Unspecified
(49.2170°N, 0.0000°E)
Time: 07:13:43
(UTC+00:00)

A-11 Canister half - Pass Details

Date: 25 June 2019
Orbit: 1526 x 1683 km, 47.3° (Epoch: 19 July)

Event Time Altitude Azimuth Distance (km) Brightness Sun altitude
Rises 09:57:05 0° 289° (WNW) 4,688 11.2 54.3°
Reaches altitude 10° 10:00:23 10° 281° (WNW) 3,698 10.8 54.8°
Maximum altitude 10:08:38 38° 218° (SW) 2,188 10.4 55.8°
Drops below altitude 10° 10:16:58 10° 155° (SSE) 3,718 11.7 56.9°
Sets 10:20:18 0° 148° (SSE) 4,716 12.0 57.3°
